Wind_Speed
16 20 20 2 3 4 4 6 2 6 6 4 4 9 6 3 1 3 4 27 34 37 32 28 26 26 25 25 25 25 24 23 22 21 22 23 22 22 21 20 18 16 14 13 12 13 14 14 14
17 19 4 2 4 2 5 6 10 7 5 9 8 5 7 3 5 9 13 22 40 37 34 30 28 26 26 24 25 24 23 23 22 21 21 21 20 19 18 16 15 13 12 12 11 12 12 12 11
14 8 2 3 3 5 5 6 6 10 5 5 4 5 5 3 10 12 16 31 36 36 33 31 29 27 26 24 24 24 23 22 22 21 20 20 19 18 16 15 13 12 11 11 11 11 11 10 9
5 5 3 2 5 6 7 10 13 7 5 8 7 5 4 3 5 15 33 37 35 33 32 31 29 27 26 25 23 23 23 22 21 21 19 19 18 17 16 14 13 12 12 11 10 10 10 10 9
1 3 1 3 5 6 3 9 8 6 3 6 5 4 3 5 21 36 33 35 35 32 31 31 29 27 26 24 23 22 22 22 21 20 19 18 17 16 15 14 13 12 12 11 11 10 10 10 9
3 3 1 4 6 6 2 9 7 6 2 2 6 6 3 24 33 30 31 33 32 33 32 31 29 27 26 24 23 22 22 22 21 20 19 18 18 17 17 17 16 15 14 13 12 11 11 10 9
4 4 5 4 5 7 4 8 8 8 2 3 8 5 3 7 28 32 31 30 31 29 31 30 29 27 25 24 23 22 21 22 22 21 20 19 18 17 17 18 17 17 16 15 14 13 11 10 9
3 4 3 5 3 10 2 7 5 5 5 4 3 6 6 4 25 26 30 32 32 31 32 31 29 28 27 25 23 23 23 23 23 23 21 20 20 19 19 18 17 16 16 15 14 13 12 11 10
3 2 5 6 5 7 8 5 6 6 3 2 3 7 5 10 27 26 19 22 28 30 34 35 34 31 28 26 24 23 23 24 25 24 23 21 20 19 18 19 18 17 17 17 16 15 13 12 11
4 4 6 6 3 5 11 9 2 5 7 5 4 4 7 5 6 24 18 17 23 29 35 38 36 34 29 27 24 23 23 25 26 26 26 24 22 21 21 21 20 20 20 18 17 16 14 14 14
4 6 5 10 12 5 5 7 4 3 0 2 2 3 3 5 8 13 16 22 33 28 27 37 37 35 33 29 25 24 24 25 28 28 29 27 25 23 23 22 22 23 22 21 20 19 19 18 16
2 6 8 14 14 5 7 4 3 4 6 6 4 3 5 5 3 1 5 11 26 25 28 34 37 36 34 33 32 29 29 28 29 30 29 28 28 28 27 26 27 27 26 25 23 22 20 19 19
5 8 9 14 14 7 6 9 8 6 6 8 6 6 4 3 4 5 6 9 26 28 31 34 38 37 37 35 32 31 33 31 29 31 32 31 32 31 29 28 28 30 29 28 26 26 24 22 20
7 9 12 11 14 6 6 6 3 6 6 7 5 8 9 6 8 7 7 13 23 31 32 35 36 35 33 33 34 33 30 30 31 33 35 34 35 34 34 33 33 32 31 30 28 30 27 26 23
7 6 7 8 9 8 8 6 6 9 7 9 10 8 9 9 10 12 17 16 22 26 30 37 36 36 31 31 31 31 30 32 32 30 33 35 36 36 35 36 37 37 35 32 28 28 29 30 29
3 3 2 7 6 6 6 9 8 10 9 11 11 9 8 9 10 17 21 20 19 27 32 34 36 35 32 30 19 24 27 31 29 29 29 33 34 35 37 37 39 36 35 32 31 30 28 30 30
6 2 4 9 4 3 6 10 12 10 9 11 10 10 10 9 6 15 19 14 17 28 32 33 33 32 32 24 22 23 23 23 28 30 32 34 35 33 36 36 39 39 35 34 33 32 30 30 33
4 2 5 6 5 3 9 11 20 12 11 11 10 11 9 9 10 17 13 14 22 27 30 32 32 29 21 25 21 21 20 23 23 23 31 32 35 36 37 38 40 39 34 36 35 28 27 28 34
5 5 8 11 11 4 6 7 9 10 5 7 8 7 9 10 11 17 14 19 25 30 32 33 29 25 18 18 23 24 22 20 25 27 26 30 30 38 39 40 36 39 37 38 34 37 36 36 30
8 10 12 8 10 7 4 7 5 5 5 8 9 8 9 7 8 9 16 19 32 35 38 36 33 26 18 12 11 15 16 18 22 23 24 28 30 35 34 36 36 26 27 27 33 37 33 28 29
9 9 6 8 6 2 3 6 5 7 4 6 6 8 7 12 13 10 10 11 23 26 26 23 22 18 15 12 11 8 9 11 12 15 15 12 14 28 34 32 32 33 24 20 33 34 35 31 34
15 12 8 5 1 5 2 5 4 6 8 6 10 9 10 11 11 11 7 12 23 20 20 19 17 15 13 11 10 9 8 8 11 12 15 19 17 18 19 32 38 34 35 39 32 39 41 36 33
8 6 6 1 1 3 7 2 7 5 9 10 10 11 13 16 9 10 11 19 28 30 28 25 21 18 15 11 7 3 2 6 11 16 18 19 19 17 14 20 22 30 35 40 39 40 40 36 38
5 1 5 4 3 2 5 4 2 5 5 8 9 7 10 3 10 8 16 25 24 24 25 24 21 17 13 10 7 5 6 8 9 12 16 21 22 20 16 15 20 22 33 39 43 37 34 33 29
9 6 3 4 3 5 3 3 7 3 4 5 4 6 12 12 10 8 9 9 19 21 20 18 16 15 10 5 2 2 4 6 9 11 13 17 20 23 21 18 18 18 23 30 39 47 40 33 35
2 4 4 4 3 4 5 4 4 3 5 11 11 9 12 10 8 7 6 9 13 14 14 12 9 8 7 7 7 10 8 7 8 11 12 14 18 20 21 19 17 16 18 24 26 38 41 43 35
4 4 4 3 3 2 4 5 6 4 8 10 10 9 9 8 8 7 6 10 11 8 7 7 7 7 10 11 12 13 14 13 13 14 15 15 17 20 22 22 23 21 21 22 25 30 32 36 38
4 3 1 3 2 4 4 4 5 4 7 9 8 8 9 9 9 7 6 7 8 8 5 1 3 6 10 16 15 15 15 14 15 17 18 18 17 19 21 23 24 24 24 23 23 25 31 33 35
5 4 3 3 4 4 2 5 4 6 5 6 4 6 6 6 7 6 5 2 1 1 4 5 6 6 8 14 15 15 15 17 17 17 17 16 15 15 15 19 22 23 23 23 21 24 28 32 33
3 1 3 4 3 2 2 7 3 4 7 8 6 6 8 7 7 4 5 11 9 13 14 14 13 10 10 12 14 15 15 15 16 18 18 17 17 16 17 18 19 22 25 26 25 24 27 31 30
Wind_Direction
313 319 323 351 49 59 285 274 269 282 332 255 317 113 136 20 102 197 151 170 162 156 159 160 156 154 151 149 148 148 146 146 144 141 140 139 136 135 135 138 140 143 146 147 145 145 144 145 143
313 325 343 71 112 97 273 247 232 249 228 285 116 90 51 69 63 114 115 162 162 156 158 162 160 158 156 154 153 153 151 151 150 147 145 145 144 142 142 143 145 146 148 147 147 147 147 151 150
309 306 67 137 139 178 221 236 294 273 292 319 43 56 92 105 132 140 162 159 159 156 159 163 163 163 161 160 159 159 157 155 155 153 152 151 151 151 151 152 152 153 153 153 155 154 155 158 162
330 14 2 147 232 253 234 284 296 267 342 336 132 71 48 146 132 149 151 159 158 157 162 165 167 168 167 165 164 165 163 161 161 160 159 159 159 159 160 160 161 161 163 164 165 166 167 171 178
148 74 339 270 255 252 332 271 317 264 151 348 317 98 54 41 129 144 153 160 159 160 164 168 171 172 172 171 171 170 172 168 168 168 168 168 169 168 169 170 170 171 174 176 176 179 183 185 190
19 100 41 240 258 284 278 297 314 307 52 326 68 102 79 140 136 152 152 162 165 162 168 171 174 177 178 177 177 178 178 178 176 176 178 179 179 180 179 180 180 181 183 186 189 192 194 196 200
147 103 224 231 271 301 302 320 298 314 41 332 136 91 115 142 157 160 159 159 165 166 170 174 177 181 183 184 185 187 186 187 186 186 187 187 189 191 193 192 191 191 193 194 198 202 205 207 211
173 116 238 241 206 271 284 330 303 250 271 139 84 146 159 172 164 162 159 161 165 170 175 178 180 183 186 189 192 194 194 195 196 196 196 196 197 200 201 202 204 205 205 205 205 211 217 217 219
156 111 220 226 188 271 309 339 321 300 111 54 136 130 171 120 127 147 144 156 165 174 179 182 183 185 187 190 192 198 201 202 201 202 203 203 206 207 209 212 213 216 217 218 217 217 222 233 236
146 188 234 217 230 269 319 312 245 20 7 1 73 66 113 82 128 146 159 170 178 181 185 186 186 186 188 189 192 196 199 202 205 205 205 209 213 215 217 218 217 220 223 227 229 229 230 233 242
194 205 232 274 252 240 255 297 304 141 236 210 295 156 143 90 69 63 175 187 192 194 182 190 189 189 187 192 195 196 200 204 206 210 210 213 216 221 223 225 224 224 229 231 231 233 235 237 239
252 242 226 256 257 251 254 252 240 187 224 194 222 238 117 107 89 152 114 172 196 193 190 194 194 189 195 195 199 202 204 205 207 212 216 219 218 223 225 230 229 227 224 229 233 234 237 243 250
178 258 257 251 258 238 269 258 244 203 252 278 267 268 233 173 185 255 163 145 182 186 196 196 196 192 197 201 201 204 206 209 212 217 219 221 226 227 232 231 234 233 232 232 236 240 239 242 244
220 226 253 266 261 243 213 257 218 264 241 273 255 253 258 204 220 245 186 172 175 188 198 195 195 192 194 203 205 203 206 213 217 222 223 225 228 231 233 236 236 238 235 235 238 240 242 242 241
242 252 285 259 249 226 188 266 220 247 261 259 272 253 250 234 230 227 255 187 187 184 192 193 197 196 197 206 210 213 214 219 222 229 231 231 231 232 233 235 237 239 241 241 245 246 244 244 240
345 95 305 280 225 243 127 258 263 248 239 247 253 256 247 239 227 240 251 266 190 187 186 195 204 204 203 207 213 222 220 222 228 231 234 236 236 237 236 236 239 242 242 243 245 247 247 248 248
7 248 291 286 218 251 162 264 255 252 234 237 244 244 228 227 240 244 250 256 180 190 189 194 201 209 207 222 218 230 222 225 235 235 238 240 242 240 238 240 241 240 241 241 243 248 248 250 252
242 287 279 266 290 290 277 263 264 234 222 229 243 250 219 200 224 222 216 195 174 178 186 190 197 202 226 236 225 234 253 246 245 246 242 250 246 244 244 243 244 241 240 241 241 244 250 253 255
240 244 254 275 270 236 243 254 296 253 222 233 243 220 205 208 224 228 234 191 174 180 182 186 185 190 197 201 224 238 244 254 264 271 275 264 262 249 242 244 243 246 245 243 244 251 249 246 246
242 251 270 282 271 191 302 307 301 312 246 201 208 222 235 250 256 236 222 182 177 171 175 176 179 173 170 168 201 230 253 263 267 279 284 274 270 271 264 246 239 240 247 255 258 250 248 254 251
247 224 227 217 283 216 287 317 323 303 302 300 246 228 235 223 230 239 217 191 184 178 177 166 162 161 158 152 159 176 232 253 267 286 309 336 297 274 275 264 252 245 245 251 271 270 265 268 263
254 239 227 253 31 272 85 277 302 281 303 270 272 278 256 237 236 226 138 143 152 151 153 155 160 162 162 171 181 197 229 268 293 311 315 318 319 310 299 275 266 266 284 264 258 258 256 249 252
239 232 230 199 119 48 327 87 269 334 305 290 288 287 287 252 207 152 137 132 135 131 121 121 127 127 125 127 129 114 351 319 320 319 322 326 330 335 320 309 291 262 258 247 246 256 267 266 265
295 44 39 62 90 8 250 194 273 268 275 301 302 339 336 140 123 105 108 122 124 123 120 119 118 117 121 120 109 81 33 348 325 317 316 322 326 332 330 316 310 289 264 252 260 254 260 261 258
35 48 358 343 348 220 21 357 227 295 346 298 271 108 70 59 60 71 97 106 124 124 124 123 123 128 131 133 152 307 327 331 331 327 335 331 327 329 324 314 311 301 295 277 265 259 258 249 237
21 139 147 236 213 254 342 245 254 116 11 14 58 335 82 86 93 85 85 96 121 130 135 138 149 163 185 216 247 269 269 283 298 310 333 335 338 342 340 333 317 300 291 286 279 259 238 247 242
321 61 155 131 347 110 238 283 319 53 49 41 55 50 41 49 48 60 63 72 92 133 145 163 182 208 219 241 248 250 261 269 281 296 305 318 329 333 333 330 336 324 311 288 275 266 263 252 240
119 203 8 17 328 280 292 253 233 37 52 39 33 15 21 15 12 19 31 98 98 98 98 57 275 272 261 239 244 252 261 269 276 281 293 304 314 327 328 331 332 326 329 312 291 275 264 256 244
1 0 17 100 127 219 262 255 201 151 124 99 62 9 345 348 325 346 346 317 199 308 292 286 263 262 259 238 240 245 251 255 261 268 275 281 294 307 318 328 326 326 325 326 305 283 269 263 256
180 95 95 132 282 300 294 254 45 90 11 342 312 225 223 217 263 270 304 302 291 303 314 300 283 270 235 223 228 229 236 242 251 258 262 273 278 288 302 316 320 318 321 319 304 288 275 263 248
Height
783 781 779 778 807 815 819 798 771 770 760 735 730 737 747 742 750 775 745 750 754 757 766 772 775 777 778 780 782 784 787 789 792 794 796 797 799 800 802 803 804 805 806 807 807 808 809 810 810
782 780 779 785 817 833 823 784 777 761 746 734 733 736 741 754 740 748 753 754 754 758 764 771 775 777 780 782 783 786 788 790 793 795 797 799 800 801 803 804 805 806 807 807 808 809 809 810 811
782 781 790 800 819 825 815 775 768 750 733 734 736 731 739 752 745 746 748 754 758 760 765 770 774 778 780 782 784 787 789 792 794 796 798 799 800 801 802 804 805 806 807 807 807 808 808 809 810
782 783 790 806 811 793 780 768 759 747 731 730 732 748 738 737 741 743 748 754 759 762 765 770 774 778 780 783 786 788 790 792 794 796 798 800 800 801 802 803 804 805 806 806 807 807 807 807 808
781 791 810 811 802 782 769 759 754 746 739 737 735 752 749 744 743 746 749 754 758 762 766 770 774 778 781 784 786 789 791 792 795 797 798 799 800 801 802 803 804 805 806 806 806 806 807 806 807
790 794 817 821 800 774 767 758 753 748 735 733 745 749 753 746 745 752 751 755 758 760 764 768 774 778 782 784 787 789 790 792 795 796 798 798 799 799 799 799 800 801 802 804 805 805 806 806 806
792 806 812 802 798 786 766 752 757 750 745 743 735 758 752 750 746 748 751 755 759 762 765 768 772 778 782 784 786 789 791 793 794 795 796 797 799 800 800 800 799 800 800 801 802 804 805 805 806
782 793 800 796 796 786 760 756 750 751 745 730 731 757 759 745 749 752 753 755 757 760 764 768 772 776 779 782 784 787 789 790 792 794 795 796 796 797 798 800 801 801 802 802 802 803 805 805 805
773 804 810 794 787 774 756 763 747 735 739 735 734 739 739 741 747 754 757 759 759 760 761 764 768 772 776 779 782 785 787 789 790 792 794 796 797 798 799 800 801 802 802 802 802 803 804 807 807
784 802 792 772 767 770 761 758 754 751 754 748 742 738 738 740 743 751 755 758 758 757 759 761 765 768 773 776 780 782 784 786 788 790 792 793 795 797 797 798 798 799 801 802 802 803 804 804 805
777 790 775 764 760 763 765 762 750 754 759 750 748 744 743 741 743 748 753 753 751 755 758 759 762 765 768 773 777 778 781 782 784 787 788 790 793 795 796 797 797 797 800 801 800 801 801 801 801
780 768 767 759 757 761 764 753 755 751 750 742 739 738 740 742 742 745 749 749 751 754 756 759 761 762 766 766 768 772 775 777 780 783 787 790 789 791 792 796 795 793 794 797 799 798 799 800 801
776 769 761 754 752 755 754 757 752 750 741 737 736 735 738 740 741 743 745 747 747 751 753 756 759 757 761 763 766 769 770 773 776 781 783 784 787 787 792 790 793 792 793 794 796 798 797 798 799
761 763 761 754 752 752 755 752 749 742 736 738 737 737 737 738 738 740 743 745 745 745 748 753 757 758 760 762 764 765 768 770 772 775 776 778 781 783 785 787 790 791 791 791 792 795 796 797 798
758 768 762 756 752 753 747 758 753 739 734 737 737 735 734 734 735 738 737 740 741 742 743 748 751 755 757 762 763 765 764 768 770 773 773 774 775 777 780 782 785 786 788 792 792 793 792 793 794
762 767 778 757 745 742 749 769 747 735 738 740 736 734 733 731 732 733 734 733 739 739 741 745 750 754 756 760 762 765 764 766 767 768 769 770 772 773 777 779 780 784 788 789 789 790 791 792 793
779 785 776 764 744 748 754 764 741 733 736 738 735 732 730 730 729 730 732 732 732 735 740 743 748 753 755 759 761 764 763 764 765 765 765 767 768 771 775 776 777 779 782 785 787 788 788 789 790
785 781 775 773 752 748 758 759 739 731 733 735 732 730 728 727 727 725 728 729 729 733 736 741 747 752 754 754 757 759 761 763 764 763 762 764 766 767 771 772 773 776 779 778 780 783 786 786 785
769 775 779 762 748 752 758 757 745 731 730 734 734 729 727 725 719 720 723 727 729 731 734 738 743 747 749 749 751 755 756 758 760 760 762 763 763 764 768 768 770 771 772 775 777 778 779 778 779
768 775 775 763 747 752 750 751 739 732 730 729 728 727 727 724 721 719 720 724 727 728 731 735 738 742 745 746 748 752 754 755 757 760 762 764 762 760 760 762 764 765 766 770 776 777 776 775 776
764 770 767 765 748 744 744 758 747 735 726 722 722 722 720 719 718 716 716 723 725 726 730 735 738 740 743 744 745 747 753 753 754 755 757 759 760 759 758 758 756 757 760 759 769 771 774 773 769
766 744 746 750 758 779 747 789 755 742 740 729 724 722 719 716 710 707 714 718 723 727 728 730 733 736 738 741 742 744 747 749 750 751 751 752 756 756 754 751 753 755 754 758 753 760 762 763 764
753 736 741 743 758 765 767 782 765 744 744 736 725 719 711 702 703 706 709 714 720 726 727 729 731 735 738 740 741 744 747 748 748 748 747 749 752 753 752 748 747 748 749 750 745 747 755 758 759
734 741 751 759 772 791 770 775 768 756 744 734 721 718 712 705 706 709 712 717 723 727 728 730 733 737 739 740 741 743 744 745 745 746 745 746 747 749 748 746 744 741 741 740 740 738 741 745 750
749 765 788 792 792 794 764 772 770 740 734 731 726 721 716 718 721 722 719 721 725 727 729 731 733 737 738 739 740 741 742 742 742 743 744 743 743 745 746 744 742 740 737 735 733 734 735 739 721
754 765 794 795 801 789 768 779 759 739 735 729 727 732 718 724 727 728 725 723 725 728 730 732 733 735 736 737 738 738 739 739 740 741 742 741 740 741 742 742 742 740 738 734 729 729 730 729 722
757 772 768 785 791 798 784 763 747 737 741 736 736 736 735 733 731 731 729 727 728 729 731 732 733 734 735 734 733 732 733 734 735 736 737 737 737 736 737 737 735 734 732 730 726 723 721 721 720
755 754 779 797 803 799 786 772 765 751 754 746 745 743 740 737 736 733 732 729 730 730 731 731 732 732 730 729 728 729 729 729 731 732 732 733 733 732 732 732 730 727 725 723 720 717 715 713 712
773 776 771 777 786 799 800 782 750 756 753 753 747 742 739 739 739 736 734 732 729 728 728 728 727 727 726 726 726 726 726 726 725 725 725 725 726 726 727 726 725 723 720 718 714 712 709 706 706
763 770 779 797 793 789 788 774 752 754 751 748 746 741 736 733 733 734 734 732 727 727 727 728 725 724 723 723 722 722 721 721 719 718 717 718 718 718 719 719 719 718 716 713 710 706 704 702 700